Date String (YYYY-MM-DD hh:mm:ss) UTC,Instrument flags,absolute air pressure of the measurement (hPa),sample flow rate (lpm),inlet stack bypass flow (lpm),air temperature of the measurement (°C),ambient temperature measured by the external sensor (°C),aerosol sample conditioner tube jacket temperature (°C),OPC LED temperature (°C),internal box temperature (°C),relative humidity of the measurement (%),span deviation,mass concentration of particles derived from Lorenz-Mie calculation of OPC scattering (μg/m³),mass concentration of particles derived from Lorenz-Mie calculation of OPC scattering (μg/m³),mass concentration of particles derived from Lorenz-Mie calculation of OPC scattering (μg/m³)
DateTimeUTC,F1_M11,P_M11,Q1_M11,Q2_M11,T1_M11,T2_M11,T3_M11,T4_M11,T5_M11,U1_M11,ZSPAN_M11,X2_M11,X0_M11,X1_M11
2023-12-30 11:00:00,SystemResetWarning,0830.7,5.01,000.00,021.5,020.5,000.0,029.9,022.9,8.8,0000.0,0004.30,0011.16,0003.50
2023-12-30 11:01:00,SystemResetWarning,0830.6,5.00,000.00,021.5,020.5,000.0,029.9,022.9,8.8,0000.0,0004.20,0010.07,0003.49
2023-12-30 11:02:00,SystemResetWarning,0830.7,5.00,000.00,021.5,020.5,000.0,029.9,022.9,8.8,0000.0,0004.19,0009.25,0003.49
2023-12-30 11:03:00,SystemResetWarning,0830.7,4.99,000.00,021.5,020.5,000.0,029.9,022.9,8.8,0000.0,0004.12,0008.96,0003.47
2023-12-30 11:04:00,SystemResetWarning,0830.7,5.00,000.00,021.5,020.5,000.0,029.9,022.9,8.8,0000.0,0004.14,0009.01,0003.46
2023-12-30 11:05:00,SystemResetWarning,0830.7,5.01,000.00,021.5,020.5,000.0,029.9,022.9,8.8,0000.0,0004.12,0009.46,0003.45
2023-12-30 11:06:00,SystemResetWarning,0830.7,5.01,000.00,021.5,020.5,000.0,029.9,022.9,8.8,0000.0,0004.05,0009.07,0003.43
2023-12-30 11:07:00,SystemResetWarning,0830.7,5.00,000.00,021.5,020.5,000.0,029.9,022.9,8.9,0000.0,0004.01,0008.43,0003.41
2023-12-30 11:08:00,SystemResetWarning,0830.7,5.00,000.00,021.5,020.4,000.0,029.8,022.9,9.0,0000.0,0003.98,0008.55,0003.42
2023-12-30 11:09:00,SystemResetWarning,0830.6,5.00,000.00,021.5,020.4,000.0,029.8,022.8,9.0,0000.0,0004.03,0008.62,0003.44
2023-12-30 11:10:00,SystemResetWarning,0830.6,4.99,000.00,021.5,020.4,000.0,029.8,022.8,8.9,0000.0,0004.05,0008.54,0003.46
2023-12-30 11:11:00,SystemResetWarning,0830.6,4.99,000.00,021.5,020.4,000.0,029.8,022.8,8.9,0000.0,0004.08,0008.59,0003.47
2023-12-30 11:12:00,SystemResetWarning,0830.6,5.00,000.00,021.5,020.4,000.0,029.8,022.8,8.9,0000.0,0004.10,0008.64,0003.48
2023-12-30 11:13:00,SystemResetWarning,0830.6,5.00,000.00,021.5,020.4,000.0,029.8,022.8,8.9,0000.0,0004.09,0008.67,0003.48
2023-12-30 11:14:00,SystemResetWarning,0830.6,5.00,000.00,021.5,020.3,000.0,029.8,022.8,8.9,0000.0,0004.10,0008.69,0003.48
2023-12-30 11:15:00,SystemResetWarning,0830.6,5.00,000.00,021.4,020.3,000.0,029.8,022.8,8.9,0000.0,0004.06,0008.74,0003.49
2023-12-30 11:16:00,SystemResetWarning,0830.6,5.00,000.00,021.4,020.3,000.0,029.8,022.8,8.9,0000.0,0004.04,0009.06,0003.49
2023-12-30 11:17:00,SystemResetWarning,0830.7,5.00,000.00,021.4,020.4,000.0,029.8,022.8,8.9,0000.0,0004.04,0009.30,0003.50
2023-12-30 11:18:00,SystemResetWarning,0830.7,5.00,000.00,021.4,020.4,000.0,029.8,022.8,8.9,0000.0,0004.02,0009.19,0003.49
2023-12-30 11:19:00,SystemResetWarning,0830.6,5.00,000.00,021.4,020.3,000.0,029.8,022.8,9.0,0000.0,0004.02,0009.01,0003.47
2023-12-30 11:20:00,SystemResetWarning,0830.6,5.01,000.00,021.4,020.3,000.0,029.8,022.8,9.0,0000.0,0004.02,0009.04,0003.45
2023-12-30 11:21:00,SystemResetWarning,0830.6,5.00,000.00,021.4,020.3,000.0,029.8,022.8,8.9,0000.0,0004.01,0009.11,0003.44
2023-12-30 11:22:00,SystemResetWarning,0830.7,5.01,000.00,021.4,020.3,000.0,029.8,022.7,8.9,0000.0,0003.98,0009.30,0003.42
2023-12-30 11:23:00,SystemResetWarning,0830.6,5.01,000.00,021.4,020.3,000.0,029.8,022.8,8.9,0000.0,0003.93,0009.18,0003.41
2023-12-30 11:24:00,SystemResetWarning,0830.6,5.00,000.00,021.4,020.3,000.0,029.7,022.7,9.0,0000.0,0003.95,0009.51,0003.41
2023-12-30 11:25:00,SystemResetWarning,0830.5,5.01,000.00,021.4,020.3,000.0,029.7,022.7,8.9,0000.0,0003.92,0009.58,0003.40
2023-12-30 11:26:00,SystemResetWarning,0830.7,5.01,000.00,021.4,020.3,000.0,029.7,022.7,8.9,0000.0,0003.90,0009.46,0003.39
2023-12-30 11:27:00,SystemResetWarning,0830.5,5.00,000.00,021.4,020.3,000.0,029.7,022.7,9.0,0000.0,0003.90,0008.49,0003.40
2023-12-30 11:28:00,SystemResetWarning,0830.7,5.00,000.00,021.4,020.3,000.0,029.7,022.7,9.0,0000.0,0003.88,0007.91,0003.39
2023-12-30 11:29:00,SystemResetWarning,0830.6,5.00,000.00,021.4,020.3,000.0,029.7,022.7,9.0,0000.0,0003.87,0008.16,0003.39
2023-12-30 11:30:00,SystemResetWarning,0830.5,5.00,000.00,021.3,020.3,000.0,029.7,022.7,9.0,0000.0,0003.88,0008.42,0003.39
2023-12-30 11:31:00,SystemResetWarning,0830.5,5.01,000.00,021.3,020.3,000.0,029.7,022.7,9.0,0000.0,0003.87,0008.42,0003.41
2023-12-30 11:32:00,SystemResetWarning,0830.5,5.00,000.00,021.3,020.3,000.0,029.7,022.7,9.1,0000.0,0003.85,0008.40,0003.42
2023-12-30 11:33:00,SystemResetWarning,0830.4,5.00,000.00,021.3,020.2,000.0,029.7,022.6,9.0,0000.0,0003.89,0008.98,0003.43
2023-12-30 11:34:00,SystemResetWarning,0830.6,5.00,000.00,021.3,020.2,000.0,029.7,022.6,9.0,0000.0,0003.95,0009.72,0003.44
2023-12-30 11:35:00,SystemResetWarning,0830.6,4.99,000.00,021.3,020.1,000.0,029.7,022.6,9.0,0000.0,0003.94,0009.75,0003.45
2023-12-30 11:36:00,SystemResetWarning,0830.6,5.00,000.00,021.3,020.1,000.0,029.7,022.6,9.0,0000.0,0003.93,0009.74,0003.46
2023-12-30 11:37:00,SystemResetWarning,0830.4,5.00,000.00,021.3,020.1,000.0,029.7,022.6,9.0,0000.0,0003.97,0009.81,0003.48
2023-12-30 11:38:00,SystemResetWarning,0830.7,5.00,000.00,021.3,020.1,000.0,029.6,022.6,9.0,0000.0,0003.99,0010.14,0003.49
2023-12-30 11:39:00,SystemResetWarning,0830.5,5.00,000.00,021.3,020.1,000.0,029.6,022.6,9.0,0000.0,0004.00,0010.77,0003.50
2023-12-30 11:40:00,SystemResetWarning,0830.5,5.01,000.00,021.3,020.1,000.0,029.6,022.6,9.0,0000.0,0004.03,0010.72,0003.52
2023-12-30 11:41:00,SystemResetWarning,0830.5,5.01,000.00,021.3,020.1,000.0,029.6,022.6,9.1,0000.0,0004.06,0010.46,0003.55
2023-12-30 11:42:00,SystemResetWarning,0830.9,5.00,000.00,021.2,020.0,000.0,029.6,022.6,9.0,0000.0,0004.06,0010.31,0003.55
2023-12-30 11:43:00,SystemResetWarning,0830.6,5.00,000.00,021.2,020.0,000.0,029.6,022.5,9.0,0000.0,0004.07,0010.27,0003.54
2023-12-30 11:44:00,SystemResetWarning,0830.8,4.99,000.00,021.2,020.0,000.0,029.6,022.5,9.0,0000.0,0004.03,0009.67,0003.54
2023-12-30 11:45:00,SystemResetWarning,0830.4,5.00,000.00,021.2,020.0,000.0,029.6,022.5,9.0,0000.0,0003.99,0009.51,0003.54
2023-12-30 11:46:00,SystemResetWarning,0830.4,5.00,000.00,021.2,020.0,000.0,029.6,022.5,9.0,0000.0,0004.01,0009.15,0003.54
2023-12-30 11:47:00,SystemResetWarning,0830.5,4.99,000.00,021.2,020.0,000.0,029.6,022.5,9.0,0000.0,0004.05,0009.69,0003.56
2023-12-30 11:48:00,SystemResetWarning,0830.4,5.00,000.00,021.2,019.9,000.0,029.6,022.5,9.0,0000.0,0004.02,0009.78,0003.56
2023-12-30 11:49:00,SystemResetWarning,0830.5,5.00,000.00,021.2,019.9,000.0,029.5,022.5,9.1,0000.0,0004.02,0009.40,0003.56
2023-12-30 11:50:00,SystemResetWarning,0830.6,5.01,000.00,021.2,019.9,000.0,029.5,022.5,9.1,0000.0,0004.04,0008.89,0003.56
2023-12-30 11:51:00,SystemResetWarning,0830.6,5.01,000.00,021.1,019.9,000.0,029.5,022.4,9.1,0000.0,0004.02,0008.80,0003.53
2023-12-30 11:52:00,SystemResetWarning,0830.6,5.01,000.00,021.1,019.9,000.0,029.5,022.4,9.1,0000.0,0004.00,0008.78,0003.52
2023-12-30 11:53:00,SystemResetWarning,0830.6,5.01,000.00,021.1,019.9,000.0,029.5,022.4,9.1,0000.0,0003.97,0008.75,0003.52
2023-12-30 11:54:00,SystemResetWarning,0830.6,4.99,000.00,021.1,019.9,000.0,029.5,022.4,9.1,0000.0,0003.95,0008.93,0003.53
2023-12-30 11:55:00,SystemResetWarning,0830.6,4.99,000.00,021.1,019.8,000.0,029.5,022.4,9.0,0000.0,0003.97,0009.52,0003.52
2023-12-30 11:56:00,SystemResetWarning,0830.8,4.99,000.00,021.1,019.8,000.0,029.5,022.4,9.0,0000.0,0003.99,0008.81,0003.52
2023-12-30 11:57:00,SystemResetWarning,0830.5,5.01,000.00,021.0,019.8,000.0,029.5,022.3,9.1,0000.0,0003.99,0008.77,0003.52
2023-12-30 11:58:00,SystemResetWarning,0830.6,5.01,000.00,021.0,019.8,000.0,029.4,022.3,9.1,0000.0,0003.96,0008.19,0003.52
2023-12-30 11:59:00,SystemResetWarning,0830.5,5.00,000.00,021.0,019.7,000.0,029.4,022.3,9.1,0000.0,0003.97,0008.30,0003.52
